Location: Ciochowice
(50.4289°N, 18.5217°E)
Time: 21:38:24
(UTC+01:00)

ISS - Pass Details

Date: 28 January 2019
Orbit: 403 x 411 km, 51.6° (Epoch: 22 February)

Event Time Altitude Azimuth Distance (km) Brightness Sun altitude
Rises 19:06:49 0° 268° (W) 2,336 1.4 -24.6°
Reaches altitude 10° 19:08:55 10° 271° (W) 1,477 0.1 -25.0°
Enters shadow 19:10:48 31° 278° (W) 750 -1.9 -25.3°
